カタログに戻る

CZ-8A R/B

運用中LEO
NORAD 66924·ROCKET BODY·🇨🇳 China

打ち上げ Dec 6, 2025 から Wenchang Space Launch Site

Loading…

次のパス (今後24時間)

TLE

最新Source: Space-Track

元期: Sep 14, 2026, 09:03 UTC

1 66924U 25285K   26257.37775807 -.00000061  00000-0  37067-4 0  9990
2 66924  50.0094  22.7443 0118849 358.1044   1.9407 14.30609939 40385

AllMySatでCZ-8A R/Bをリアルタイム追跡

Download on the App Store